Tracking 31027 objects as of 19-Jul-2025
HD Live streaming from Space Station
objects crossing your sky now

COSMOS 1691 DEB

Track COSMOS 1691 DEB now!
10-day predictions


NORAD ID: 19111
Int'l Code: 1985-094V
Perigee: 1,380.4 km
Apogee: 1,397.2 km
Inclination: 82.6 °
Period: 113.4 minutes
Semi major axis: 7759 km
RCS: 0.0114 m2 (small)
Launch date: October 9, 1985
Source: Commonwealth of Independent States (former USSR) (CIS)
Launch site: PLESETSK MISSILE AND SPACE COMPLEX (PKMTR)

Note: This is SATELLITE DEBRIS
Your satellite tracking list
STARLINK-6351
Track 1 satellite(s)




NASA's NSSDC Master Catalog

Two Line Element Set (TLE):
1 19111U 85094W   25199.37535667  .00000196  00000-0  93388-3 0  9997
2 19111  82.6044  60.3801 0010829  89.3249  95.9465 12.70074902730912
Source of the keplerian elements: AFSPC